Location: Leiter
(44.7178°N, 106.2687°W)
Time: 21:25:25
(UTC+00:00)

ISS - Visible Passes

Search period start: 26 February 2024 00:00
Search period end: 07 March 2024 00:00
Orbit: 414 x 422 km, 51.6° (Epoch: 26 February)

Date Brightness Start Highest point End Pass type
(mag) Time Alt. Az. Time Alt. Az. Time Alt. Az.
26 Feb -2.2 12:04:49 25° NNW 12:05:07 25° N 12:08:01 10° NE visible
27 Feb -1.2 11:18:49 19° NE 11:18:49 19° NE 11:20:08 10° NE visible
27 Feb -2.1 12:51:45 11° NW 12:54:36 26° N 12:57:32 10° ENE visible
28 Feb -2.1 12:05:43 22° NNW 12:06:34 24° N 12:09:26 10° ENE visible
29 Feb -1.3 11:19:38 20° NNE 11:19:38 20° NNE 11:21:19 10° NE visible
29 Feb -2.5 12:52:41 10° NW 12:55:52 37° NNE 12:59:03 10° E visible
01 Mar -2.2 12:06:28 22° NNW 12:07:48 30° NNE 12:10:50 10° ENE visible
02 Mar -1.6 11:20:22 24° NNE 11:20:22 24° NNE 11:22:33 10° ENE visible
02 Mar -3.5 12:53:26 10° WNW 12:56:49 70° NNE 13:00:11 10° ESE visible
03 Mar -3.0 12:07:13 27° NW 12:08:43 48° NNE 12:12:01 10° E visible
04 Mar -2.1 11:21:09 33° NE 11:21:09 33° NE 11:23:42 10° E visible
04 Mar -3.4 12:54:07 10° WNW 12:57:25 49° SW 13:00:40 10° SE visible
05 Mar -0.2 10:35:09 11° ENE 10:35:09 11° ENE 10:35:18 10° ENE visible
05 Mar -3.9 12:08:05 36° WNW 12:09:19 80° SSW 12:12:41 10° SE visible
06 Mar -2.5 11:22:09 40° E 11:22:09 40° E 11:24:29 10° ESE visible
06 Mar -2.1 12:55:06 10° W 12:57:36 19° SW 13:00:06 10° S visible
